Weather History for Scarborough, Trinidad And Tobago

Change the Weather History Date:

Friday, November 4, 2011

  Actual Average Record
Temperature  
Mean Temperature 82 °F -  
Max Temperature 86 °F 85 °F 89 °F (1999)
Min Temperature 77 °F 76 °F 75 °F (2002)
Cooling Degree Days 16    
Growing Degree Days 32 (Base 50)    
Moisture  
Dew Point 76 °F    
Average Humidity 85    
Maximum Humidity 94    
Minimum Humidity 74    
Precipitation  
Precipitation 0.00 in - - ()
Sea Level Pressure  
Sea Level Pressure 29.85 in    
Wind  
Wind Speed 5 mph ()    
Max Wind Speed 14 mph    
Max Gust Speed -    
Visibility 5.7 miles    
Events Rain , Thunderstorm    
Averages and records for this station are not official NWS values.
T = Trace of Precipitation, MM = Missing Value Source: Averaged Metar Reports

Daily Weather History Graph

Daily Weather History Graph

Search for Another Location

Airport:

Trip Planner

Search our weather history database for the weather conditions in past years. The results will help you decide how hot, cold, wet, or windy it might be!

Date:

Astronomy

Nov. 04, 2011 Rise Set
Actual Time 5:55 AM AST 5:37 PM AST
Civil Twilight 5:33 AM AST 5:59 PM AST
Nautical Twilight 5:08 AM AST 6:24 PM AST
Astronomical Twilight 4:43 AM AST 6:50 PM AST
Moon 1:34 PM AST (11/4) 1:02 AM AST (11/4)
Length of Visible Light 12h 25m
Length of Day
11h 42m
Waxing Gibbous, 69% of the Moon is Illuminated
Nov 4
Waxing Gibbous
Nov 10
Full
Nov 18
Last Quarter
Nov 25
New
Dec 2
First Quarter

Hourly Weather History & Observations

Time (AST) Temp. Heat Index Dew Point Humidity Pressure Visibility Wind Dir Wind Speed Gust Speed Precip Events Conditions
12:00 AM 78.8 °F - 71.6 °F 78% 29.89 in 6.2 mi ENE 5.8 mph - N/A   Scattered Clouds
1:00 AM 80.6 °F 85.4 °F 73.4 °F 79% 29.86 in 6.2 mi ENE 5.8 mph - N/A   Scattered Clouds
2:00 AM 78.8 °F - 71.6 °F 78% 29.86 in 6.2 mi East 8.1 mph - N/A   Scattered Clouds
3:00 AM 78.8 °F - 73.4 °F 83% 29.83 in 6.2 mi ENE 5.8 mph - N/A   Scattered Clouds
5:00 AM 77.0 °F - 71.6 °F 83% 29.83 in 6.2 mi Calm Calm - N/A   Scattered Clouds
6:00 AM 78.8 °F - 73.4 °F 83% 29.86 in 6.2 mi ENE 3.5 mph - N/A   Scattered Clouds
7:00 AM 78.8 °F - 73.4 °F 83% 29.86 in 6.2 mi Calm Calm - N/A   Mostly Cloudy
8:00 AM 82.4 °F 92.4 °F 78.8 °F 89% 29.89 in 6.2 mi Calm Calm - N/A   Mostly Cloudy
9:00 AM 84.2 °F 96.1 °F 78.8 °F 84% 29.89 in 6.2 mi East 10.4 mph - N/A   Mostly Cloudy
10:00 AM 86.0 °F 99.3 °F 78.8 °F 79% 29.89 in 6.2 mi East 10.4 mph - N/A   Mostly Cloudy
1:00 PM 86.0 °F 96.9 °F 77.0 °F 74% 29.83 in 6.2 mi ESE 9.2 mph - N/A   Mostly Cloudy
2:00 PM 86.0 °F 99.3 °F 78.8 °F 79% 29.80 in 5.6 mi SE 8.1 mph - N/A   Mostly Cloudy
3:00 PM 84.2 °F 96.1 °F 78.8 °F 84% 29.80 in 5.6 mi NE 11.5 mph - N/A   Mostly Cloudy
4:00 PM 84.2 °F 94.1 °F 77.0 °F 79% 29.80 in 6.2 mi NNE 6.9 mph - N/A   Mostly Cloudy
5:00 PM 84.2 °F 96.1 °F 78.8 °F 84% 29.83 in 5.6 mi NE 5.8 mph - N/A   Mostly Cloudy
6:00 PM 78.8 °F - 77.0 °F 94% 29.83 in 3.7 mi SSE 13.8 mph - N/A Rain Light Rain Showers
6:12 PM 78.8 °F - 77.0 °F 94% 29.83 in 3.1 mi Calm Calm - N/A Rain , Thunderstorm Light Thunderstorms and Rain
6:43 PM 78.8 °F - 77.0 °F 94% 29.86 in 4.3 mi Calm Calm - N/A   Mostly Cloudy
7:00 PM 78.8 °F - 77.0 °F 94% 29.83 in 4.3 mi Calm Calm - N/A   Mostly Cloudy
8:00 PM 78.8 °F - 75.2 °F 89% 29.83 in 6.2 mi Calm Calm - N/A   Mostly Cloudy
9:00 PM 78.8 °F - 75.2 °F 89% 29.86 in 6.2 mi Calm Calm - N/A   Mostly Cloudy
10:00 PM 78.8 °F - 75.2 °F 89% 29.89 in 6.2 mi ENE 5.8 mph - N/A   Partly Cloudy
11:00 PM 78.8 °F - 75.2 °F 89% 29.86 in 6.2 mi East 4.6 mph - N/A   Mostly Cloudy